Temp
-2 -2 -2 -2 -2 -3 -4 -5 -5 -5 -5 -6 -6 -6 -6 -6 -6 -6 -6 -6 -6 -7 -6 -6 -6 -6 -6 -5 -5 -5 -5 -5 -5 -5 -5 -5 -5 -5 -4 -4 -3 -4 -4 -4 -4
-2 -2 -2 -2 -2 -2 -3 -4 -5 -5 -5 -5 -5 -6 -6 -5 -6 -6 -6 -7 -6 -6 -7 -6 -6 -5 -6 -5 -5 -5 -6 -5 -5 -5 -5 -5 -5 -4 -4 -4 -4 -4 -4 -4 -4
-2 -2 -2 -2 -2 -2 -2 -3 -3 -4 -5 -5 -5 -5 -5 -5 -5 -6 -6 -6 -6 -6 -6 -6 -6 -6 -6 -6 -5 -5 -5 -5 -5 -5 -5 -5 -5 -4 -4 -4 -4 -4 -4 -4 -4
-1 -1 -2 -2 -2 -2 -2 -2 -2 -3 -4 -5 -5 -5 -5 -5 -5 -5 -5 -5 -6 -6 -6 -6 -6 -6 -6 -5 -5 -5 -5 -5 -5 -5 -5 -5 -5 -4 -4 -4 -4 -4 -4 -4 -4
-1 -1 -1 -2 -2 -2 -2 -2 -2 -2 -3 -4 -4 -5 -5 -5 -5 -5 -5 -5 -5 -6 -6 -6 -7 -6 -6 -6 -5 -4 -5 -5 -5 -5 -5 -5 -5 -5 -5 -4 -4 -4 -4 -5 -4
-1 -1 -1 -2 -2 -2 -2 -2 -2 -2 -3 -3 -4 -5 -5 -4 -4 -5 -5 -5 -5 -5 -6 -6 -7 -7 -7 -6 -6 -5 -5 -5 -5 -5 -5 -5 -5 -5 -4 -4 -4 -4 -4 -5 -5
-1 -1 -1 -1 -2 -2 -2 -2 -2 -2 -2 -2 -3 -4 -5 -4 -4 -4 -5 -5 -5 -5 -5 -6 -6 -7 -7 -7 -6 -6 -6 -6 -6 -5 -5 -5 -5 -5 -5 -4 -4 -4 -4 -4 -4
-1 -1 -1 -1 -2 -2 -2 -2 -2 -2 -2 -2 -2 -3 -3 -3 -4 -4 -4 -4 -5 -5 -5 -5 -6 -6 -6 -7 -7 -7 -6 -8 -6 -6 -6 -6 -6 -6 -5 -4 -4 -4 -5 -5 -4
-1 -1 -1 -1 -2 -2 -2 -2 -2 -2 -2 -2 -2 -2 -2 -3 -3 -3 -4 -5 -5 -5 -6 -6 -5 -5 -5 -6 -7 -7 -8 -7 -6 -6 -5 -5 -5 -5 -5 -4 -4 -4 -4 -5 -4
-1 -1 -1 -1 -2 -2 -2 -2 -2 -2 -2 -2 -2 -2 -2 -3 -3 -3 -4 -4 -5 -5 -6 -6 -5 -5 -6 -7 -6 -8 -8 -7 -7 -6 -6 -6 -5 -5 -5 -5 -4 -4 -4 -5 -4
-2 -2 -1 -2 -2 -2 -2 -2 -2 -2 -2 -2 -2 -2 -3 -3 -3 -4 -4 -4 -5 -5 -5 -6 -6 -7 -6 -6 -7 -7 -6 -6 -6 -6 -6 -6 -5 -5 -5 -5 -5 -4 -4 -4 -5
-3 -2 -2 -2 -2 -2 -2 -2 -2 -2 -2 -2 -3 -3 -2 -3 -3 -3 -4 -5 -5 -5 -6 -6 -6 -6 -7 -7 -7 -6 -6 -7 -6 -7 -6 -6 -6 -5 -5 -5 -5 -5 -4 -4 -4
-3 -3 -3 -3 -3 -2 -2 -2 -2 -2 -2 -2 -3 -3 -3 -3 -3 -3 -4 -5 -5 -5 -6 -6 -6 -6 -7 -7 -7 -7 -7 -7 -7 -6 -6 -5 -6 -6 -5 -5 -4 -4 -4 -4 -4
-4 -4 -4 -3 -3 -3 -3 -2 -2 -3 -3 -3 -3 -3 -3 -3 -3 -4 -4 -4 -5 -6 -6 -6 -6 -7 -7 -7 -8 -7 -7 -7 -7 -7 -7 -6 -7 -6 -6 -5 -5 -4 -4 -4 -4
-5 -5 -5 -4 -4 -3 -3 -3 -3 -3 -3 -3 -3 -3 -4 -4 -4 -4 -4 -5 -5 -6 -6 -9 -7 -8 -8 -8 -7 -7 -8 -8 -7 -7 -6 -7 -8 -7 -6 -6 -6 -5 -5 -5 -4
-6 -6 -5 -5 -5 -4 -4 -4 -4 -4 -4 -4 -4 -4 -4 -4 -4 -4 -5 -5 -5 -5 -6 -6 -6 -7 -7 -7 -8 -7 -8 -8 -8 -8 -7 -7 -7 -6 -6 -6 -6 -6 -6 -5 -5
-6 -6 -6 -6 -6 -5 -5 -5 -5 -4 -5 -4 -4 -4 -4 -4 -4 -5 -5 -5 -5 -6 -6 -7 -7 -7 -8 -8 -8 -8 -8 -7 -7 -6 -6 -7 -6 -6 -6 -6 -6 -6 -6 -5 -5
-6 -6 -6 -6 -6 -6 -6 -5 -5 -5 -5 -5 -5 -5 -5 -5 -5 -5 -5 -5 -5 -6 -7 -7 -8 -7 -8 -8 -8 -8 -8 -7 -7 -6 -6 -6 -6 -6 -6 -6 -5 -6 -6 -6 -6
-6 -6 -6 -6 -6 -6 -6 -6 -6 -6 -6 -6 -5 -5 -6 -5 -5 -5 -5 -5 -5 -6 -6 -7 -7 -7 -7 -8 -8 -8 -7 -8 -7 -7 -7 -6 -6 -6 -6 -6 -6 -6 -7 -6 -6
-6 -6 -6 -6 -6 -6 -6 -6 -6 -6 -6 -6 -6 -6 -6 -6 -6 -6 -6 -5 -5 -6 -6 -6 -7 -7 -7 -8 -8 -7 -8 -7 -7 -7 -6 -6 -6 -7 -6 -6 -6 -6 -6 -6 -7
-6 -6 -6 -6 -6 -6 -6 -6 -6 -6 -6 -6 -6 -6 -6 -6 -6 -6 -6 -6 -6 -6 -6 -6 -7 -8 -7 -7 -8 -7 -7 -7 -7 -7 -6 -6 -7 -6 -6 -7 -6 -7 -6 -7 -7
-6 -6 -6 -6 -6 -6 -6 -6 -6 -6 -6 -6 -6 -6 -6 -6 -7 -7 -7 -6 -6 -6 -6 -7 -7 -7 -7 -7 -7 -7 -7 -7 -7 -7 -7 -6 -6 -7 -7 -7 -7 -6 -7 -7 -7
-6 -6 -6 -6 -6 -6 -6 -6 -7 -6 -6 -6 -6 -6 -6 -7 -7 -7 -7 -7 -7 -7 -6 -6 -6 -7 -7 -7 -7 -6 -7 -7 -7 -7 -7 -7 -7 -7 -7 -7 -7 -7 -7 -7 -7
-7 -7 -6 -6 -6 -6 -6 -6 -6 -6 -6 -6 -6 -6 -7 -7 -7 -7 -7 -8 -7 -7 -7 -7 -7 -8 -7 -8 -8 -7 -7 -7 -8 -7 -7 -7 -7 -7 -7 -7 -7 -7 -7 -7 -7
-7 -7 -7 -7 -7 -7 -7 -6 -7 -7 -7 -7 -6 -7 -7 -8 -8 -8 -8 -8 -8 -8 -8 -8 -8 -7 -8 -7 -7 -8 -8 -7 -7 -8 -8 -7 -8 -7 -7 -7 -7 -7 -7 -7 -7
-8 -8 -8 -8 -7 -7 -7 -7 -7 -7 -7 -7 -7 -7 -8 -8 -9 -9 -9 -8 -8 -8 -8 -8 -8 -8 -8 -8 -8 -8 -8 -8 -7 -7 -8 -8 -8 -8 -8 -8 -8 -7 -7 -7 -7
-8 -8 -8 -8 -8 -8 -8 -8 -8 -8 -8 -8 -8 -8 -8 -8 -8 -9 -9 -9 -8 -8 -8 -8 -8 -8 -8 -9 -8 -8 -8 -8 -8 -8 -8 -8 -8 -8 -8 -8 -8 -7 -7 -7 -7
Height
5909 5910 5910 5909 5910 5910 5910 5911 5912 5913 5914 5913 5914 5914 5914 5915 5916 5916 5916 5916 5916 5916 5915 5914 5913 5913 5913 5913 5914 5915 5919 5920 5922 5923 5925 5926 5927 5927 5928 5931 5930 5930 5931 5932 5933
5912 5912 5912 5912 5912 5913 5913 5913 5914 5914 5915 5916 5916 5916 5916 5916 5917 5918 5919 5919 5919 5919 5918 5917 5917 5917 5916 5916 5917 5919 5922 5924 5925 5925 5926 5928 5930 5930 5930 5931 5932 5932 5933 5933 5934
5913 5914 5914 5914 5914 5915 5915 5915 5915 5916 5917 5918 5918 5919 5919 5919 5919 5919 5919 5920 5920 5921 5921 5920 5921 5922 5921 5920 5920 5922 5922 5925 5926 5927 5928 5930 5931 5931 5932 5933 5933 5933 5935 5935 5936
5914 5914 5915 5915 5915 5916 5917 5917 5917 5917 5918 5919 5920 5920 5921 5921 5923 5922 5922 5922 5923 5923 5923 5924 5925 5925 5925 5925 5924 5925 5926 5926 5927 5928 5930 5930 5932 5933 5934 5934 5934 5935 5936 5937 5938
5915 5915 5915 5915 5916 5916 5918 5918 5919 5919 5918 5920 5921 5922 5922 5923 5924 5924 5925 5924 5925 5925 5926 5927 5927 5927 5928 5927 5927 5927 5928 5928 5929 5930 5932 5932 5933 5934 5935 5935 5934 5936 5936 5937 5939
5915 5915 5915 5916 5916 5916 5917 5920 5920 5920 5920 5920 5922 5923 5923 5924 5925 5925 5926 5927 5927 5927 5928 5929 5930 5930 5930 5930 5930 5929 5930 5930 5931 5932 5933 5934 5934 5934 5936 5936 5935 5937 5938 5938 5939
5914 5914 5915 5915 5916 5916 5917 5919 5921 5921 5921 5921 5922 5923 5923 5926 5926 5926 5927 5928 5929 5930 5931 5931 5932 5932 5932 5931 5932 5933 5932 5933 5933 5933 5934 5934 5935 5935 5935 5935 5936 5938 5938 5939 5940
5913 5914 5914 5915 5916 5917 5917 5919 5921 5922 5923 5922 5923 5924 5925 5925 5926 5927 5929 5929 5930 5930 5931 5932 5933 5934 5934 5933 5934 5934 5935 5938 5935 5934 5934 5935 5936 5935 5936 5936 5936 5938 5939 5939 5940
5911 5912 5913 5914 5915 5916 5917 5918 5920 5922 5923 5923 5923 5923 5925 5926 5927 5928 5929 5930 5930 5931 5931 5932 5933 5935 5936 5935 5936 5936 5938 5935 5935 5935 5935 5936 5935 5936 5936 5937 5938 5938 5940 5940 5941
5909 5910 5912 5913 5914 5915 5916 5918 5919 5920 5921 5922 5923 5925 5924 5926 5926 5928 5929 5929 5930 5930 5931 5931 5934 5935 5935 5937 5938 5937 5938 5936 5936 5936 5935 5936 5936 5936 5937 5938 5939 5939 5940 5942 5942
5906 5908 5909 5910 5912 5914 5915 5916 5919 5920 5920 5921 5922 5922 5923 5925 5925 5927 5927 5928 5930 5930 5930 5930 5933 5936 5936 5934 5935 5935 5936 5936 5935 5937 5937 5936 5936 5936 5937 5938 5939 5940 5941 5942 5944
5902 5904 5906 5908 5909 5911 5913 5914 5915 5917 5918 5918 5919 5919 5921 5922 5923 5924 5926 5927 5927 5929 5929 5930 5931 5932 5933 5934 5935 5935 5934 5934 5936 5935 5936 5936 5937 5936 5937 5938 5939 5940 5940 5941 5943
5899 5901 5902 5904 5906 5908 5910 5911 5912 5914 5915 5916 5917 5917 5919 5920 5920 5921 5922 5924 5925 5926 5927 5928 5929 5930 5932 5934 5934 5934 5934 5934 5932 5933 5935 5936 5938 5937 5937 5937 5938 5939 5939 5940 5941
5895 5897 5899 5901 5904 5904 5906 5908 5910 5911 5913 5914 5914 5915 5916 5917 5918 5918 5919 5922 5922 5924 5925 5925 5927 5929 5930 5932 5934 5939 5933 5932 5931 5931 5936 5936 5939 5938 5937 5937 5937 5937 5937 5938 5939
5892 5894 5895 5897 5899 5900 5903 5904 5906 5908 5910 5911 5910 5912 5913 5915 5915 5916 5917 5918 5919 5920 5922 5926 5924 5926 5929 5930 5932 5933 5932 5931 5926 5927 5934 5936 5935 5937 5936 5936 5936 5936 5936 5936 5937
5889 5890 5892 5893 5895 5897 5898 5900 5902 5905 5905 5907 5908 5909 5910 5911 5912 5913 5914 5915 5916 5917 5918 5919 5921 5925 5926 5928 5929 5931 5932 5932 5931 5932 5936 5937 5936 5938 5937 5936 5935 5933 5933 5934 5935
5885 5886 5889 5890 5892 5893 5895 5897 5900 5900 5903 5905 5906 5907 5908 5909 5910 5910 5912 5912 5913 5915 5917 5918 5919 5921 5923 5925 5927 5929 5932 5937 5939 5937 5937 5936 5937 5937 5936 5934 5933 5931 5930 5933 5933
5880 5882 5884 5886 5888 5889 5891 5894 5895 5897 5899 5901 5903 5904 5905 5906 5908 5909 5909 5910 5911 5912 5914 5915 5918 5918 5922 5922 5925 5930 5930 5935 5936 5939 5938 5936 5937 5934 5934 5933 5932 5930 5930 5932 5933
5875 5878 5880 5883 5884 5886 5888 5890 5891 5893 5896 5898 5900 5901 5903 5904 5905 5906 5907 5908 5908 5910 5911 5913 5914 5913 5915 5918 5921 5925 5924 5930 5932 5933 5934 5937 5935 5933 5933 5932 5931 5931 5931 5932 5933
5869 5872 5875 5877 5880 5882 5884 5886 5888 5890 5892 5894 5895 5898 5899 5900 5902 5903 5904 5905 5905 5907 5907 5910 5911 5912 5913 5916 5919 5920 5923 5926 5928 5932 5934 5935 5934 5929 5932 5931 5930 5931 5931 5932 5933
5862 5865 5868 5871 5873 5876 5879 5881 5883 5885 5887 5890 5891 5893 5895 5897 5898 5899 5901 5902 5903 5904 5906 5907 5910 5911 5914 5916 5918 5918 5919 5922 5925 5928 5933 5934 5930 5931 5931 5930 5930 5930 5930 5930 5932
5855 5858 5860 5863 5867 5870 5873 5875 5877 5879 5882 5884 5886 5888 5890 5892 5894 5896 5898 5898 5900 5902 5903 5904 5907 5908 5912 5912 5914 5915 5917 5920 5924 5926 5927 5928 5931 5930 5930 5930 5929 5929 5929 5930 5930
5846 5850 5852 5855 5858 5862 5865 5868 5870 5872 5874 5877 5880 5882 5885 5887 5890 5891 5893 5894 5896 5897 5900 5901 5904 5906 5909 5911 5911 5913 5914 5917 5919 5920 5922 5927 5928 5925 5926 5928 5929 5929 5928 5929 5929
5838 5841 5844 5847 5850 5853 5856 5859 5862 5864 5866 5869 5873 5876 5879 5882 5884 5886 5888 5890 5892 5893 5895 5897 5900 5903 5910 5911 5911 5909 5911 5912 5914 5920 5920 5920 5918 5919 5921 5922 5924 5926 5926 5926 5927
5828 5832 5835 5838 5841 5844 5847 5850 5853 5856 5858 5861 5865 5868 5872 5875 5878 5880 5883 5885 5887 5889 5891 5893 5895 5897 5899 5901 5902 5904 5907 5906 5908 5911 5913 5915 5912 5913 5914 5916 5917 5919 5921 5922 5922
5820 5823 5826 5829 5832 5834 5837 5840 5843 5846 5850 5852 5855 5858 5862 5865 5870 5873 5876 5878 5880 5883 5885 5887 5889 5891 5893 5894 5896 5896 5899 5900 5902 5902 5904 5906 5904 5906 5907 5908 5910 5911 5913 5914 5915
5813 5815 5818 5821 5823 5825 5828 5831 5833 5836 5839 5842 5845 5849 5851 5853 5858 5863 5866 5868 5871 5874 5877 5880 5881 5884 5886 5885 5887 5889 5890 5892 5893 5895 5897 5898 5896 5899 5900 5901 5902 5903 5904 5905 5907
Wind_Speed
15 16 16 16 15 14 12 13 15 17 17 15 15 15 14 15 18 18 19 17 15 15 14 15 12 11 12 11 11 17 15 17 16 16 17 20 18 16 15 13 14 13 12 13 12
11 12 12 13 14 14 12 11 13 16 17 14 14 15 14 13 14 14 14 17 17 15 14 15 13 11 11 11 10 17 17 15 15 14 16 17 15 12 15 15 12 12 15 14 14
8 8 8 9 10 11 12 10 10 13 15 14 13 16 15 13 15 16 14 13 15 12 15 15 14 11 10 10 9 12 15 15 14 13 14 12 13 12 14 12 11 11 14 12 14
5 5 5 5 5 7 8 9 8 10 13 14 13 13 13 14 16 17 16 14 14 13 14 15 13 14 10 11 11 11 11 12 13 12 13 13 13 13 13 11 9 13 13 10 11
3 3 3 3 3 3 5 6 8 7 8 12 13 15 11 12 13 13 12 12 13 15 14 13 15 14 11 9 9 7 9 12 15 14 11 13 12 11 10 8 9 15 13 12 10
2 2 1 1 2 2 3 7 7 7 6 7 11 12 13 12 12 12 13 13 9 12 14 14 13 11 11 8 6 9 7 9 11 14 13 13 11 10 7 7 12 12 10 11 10
3 3 2 2 2 4 4 5 7 8 7 6 9 11 9 8 12 13 12 12 11 12 12 11 9 7 6 6 6 3 8 7 10 11 11 12 12 11 10 9 14 12 10 9 9
6 5 4 3 4 6 7 5 7 7 8 7 6 9 9 5 6 9 11 11 11 10 8 6 7 4 5 4 3 4 1 3 7 9 11 12 10 10 11 10 13 11 10 10 9
10 8 6 5 6 9 8 7 8 9 10 9 8 7 8 5 5 4 7 10 11 12 10 8 6 5 2 7 3 1 5 7 8 9 10 10 10 10 11 12 14 12 10 10 11
13 12 10 9 9 10 10 9 9 9 10 10 8 7 7 6 6 6 6 7 8 10 11 11 7 5 5 10 2 5 5 8 11 11 11 12 11 10 9 11 12 10 10 11 11
16 15 14 13 12 12 12 12 11 10 10 9 9 8 8 7 6 7 7 7 8 10 11 13 8 7 6 5 6 5 6 14 13 9 9 11 11 10 11 11 10 9 10 11 10
17 17 17 16 16 16 16 16 15 14 12 11 11 10 9 8 8 7 9 10 11 11 12 14 11 8 5 6 4 5 3 8 14 13 8 10 11 13 12 13 13 13 12 12 12
17 17 18 18 18 18 19 19 18 16 15 14 14 13 11 11 11 9 10 11 12 13 14 16 13 9 11 8 8 2 6 7 18 22 11 10 6 6 9 12 14 15 15 15 15
16 16 16 16 17 18 19 20 19 17 17 17 18 15 14 14 14 13 12 10 12 15 15 17 15 14 15 9 3 4 4 11 16 18 8 10 9 3 4 8 14 17 17 17 18
15 14 14 15 16 17 18 19 17 19 20 21 19 16 16 16 15 14 14 12 12 14 15 15 18 19 16 12 12 11 7 7 22 19 12 6 15 1 5 6 6 14 16 16 17
14 13 12 12 14 15 16 15 15 17 19 17 14 13 14 14 15 14 13 13 14 13 15 17 17 21 21 15 14 10 10 9 12 3 5 10 8 3 3 4 5 7 15 14 15
16 15 13 13 13 13 14 13 15 15 16 13 10 10 11 12 13 14 12 13 14 12 11 15 18 18 21 18 15 12 7 3 5 3 5 11 7 7 4 7 7 5 10 10 10
17 16 14 14 14 14 14 15 14 15 13 11 11 11 11 10 9 10 13 14 14 13 13 16 15 18 22 19 15 13 11 10 8 5 6 7 4 6 5 5 5 5 6 1 3
19 18 16 15 16 16 16 15 16 15 14 14 14 12 10 10 9 10 11 12 14 15 16 16 15 23 25 23 19 13 15 11 12 11 4 7 5 4 7 7 6 2 5 5 7
24 22 20 19 19 17 17 17 17 16 16 16 16 14 12 11 9 10 11 12 11 14 17 17 18 21 17 15 13 12 11 9 8 9 6 7 3 6 8 7 6 3 4 7 6
27 26 25 24 23 21 19 20 18 17 18 19 19 17 15 13 10 11 14 15 13 13 15 16 19 19 17 16 13 11 12 15 13 13 9 5 8 10 10 8 6 5 3 3 5
33 31 29 28 27 25 24 25 24 22 21 20 20 19 18 16 13 12 13 17 14 13 12 16 19 21 18 19 14 10 10 12 12 13 16 14 11 15 15 13 10 10 8 5 8
35 34 33 32 30 28 28 28 29 29 28 26 25 23 20 19 17 15 14 15 15 13 11 14 13 18 18 17 16 13 9 7 13 15 17 16 17 21 19 18 16 14 15 13 12
33 34 35 35 34 33 32 31 31 33 33 33 31 28 27 25 23 21 19 19 19 19 17 16 17 21 14 15 16 18 17 15 13 12 14 14 21 23 20 25 21 19 21 21 20
31 31 32 33 34 35 35 35 33 33 35 36 36 34 32 31 30 28 27 24 26 24 24 23 22 26 28 28 27 24 20 24 23 21 18 17 21 20 21 23 26 25 24 26 28
28 28 29 30 31 33 34 35 35 37 36 39 39 40 38 37 34 34 32 31 31 30 31 30 30 29 28 28 28 29 28 29 28 30 28 25 28 25 26 27 27 28 27 28 33
23 25 27 27 29 31 32 32 34 35 37 38 41 42 42 43 40 37 36 37 36 35 35 34 35 33 35 34 36 36 36 34 36 33 30 28 33 26 27 29 29 31 33 35 35
Wind_Direction
75 75 74 73 78 92 102 115 119 115 110 108 105 101 101 105 98 86 82 92 106 98 80 78 76 77 85 98 109 123 129 135 143 148 158 159 154 151 148 154 150 147 142 141 134
73 75 72 71 68 75 89 104 118 125 125 121 117 107 101 100 103 94 91 99 107 98 76 69 79 85 84 99 126 135 140 142 147 150 156 163 165 163 153 154 150 151 150 144 142
66 75 78 73 71 71 77 88 106 126 132 131 124 118 116 105 95 99 111 115 98 104 79 76 72 89 97 99 124 143 144 146 142 147 149 150 156 158 153 148 152 160 159 155 150
52 69 81 86 78 82 82 94 102 119 138 139 130 126 125 118 107 102 96 99 107 91 99 83 74 76 92 110 120 150 156 151 158 159 158 153 154 155 157 150 165 165 158 156 155
26 42 73 91 103 100 104 104 113 117 130 137 135 140 133 127 124 119 107 103 111 109 116 96 83 71 71 98 113 122 170 182 169 168 170 159 159 158 158 148 167 167 163 159 169
328 343 35 119 150 159 152 129 129 127 136 135 135 144 146 140 141 131 122 123 113 117 117 115 100 82 74 72 113 121 117 169 178 180 172 165 168 170 170 145 163 172 171 164 173
262 296 307 256 203 181 183 148 141 137 141 143 137 146 154 146 142 149 151 146 140 142 133 132 129 115 87 94 68 74 130 155 181 182 186 188 192 192 190 178 167 175 179 177 178
245 259 264 248 206 185 179 174 148 149 149 145 135 148 154 155 147 143 159 167 163 160 164 154 172 169 145 142 111 10 287 146 190 195 206 208 209 210 205 207 177 180 184 175 178
234 245 248 229 207 185 183 176 171 163 156 157 148 155 167 142 141 140 154 165 180 171 174 190 190 179 120 96 108 270 248 237 213 218 218 217 210 207 209 215 195 182 183 179 178
226 233 238 230 213 201 195 191 194 187 176 177 177 176 191 182 149 146 168 182 197 192 190 210 205 202 80 66 128 187 210 217 222 218 218 222 215 210 220 216 206 199 186 187 180
225 228 229 228 221 214 211 208 207 211 203 202 212 203 202 190 198 164 172 192 209 211 209 232 212 157 130 136 147 170 212 219 217 210 223 228 218 216 213 211 221 223 210 191 186
230 227 227 224 222 220 219 218 218 224 223 223 227 232 230 229 225 208 183 193 209 218 219 234 237 204 180 181 217 252 293 249 211 214 226 216 209 210 211 210 211 221 225 209 200
232 231 229 228 225 224 224 226 227 227 231 236 240 240 244 247 252 243 229 205 210 221 222 231 244 226 209 201 227 257 170 189 194 212 213 210 192 195 218 223 224 222 217 218 215
234 233 233 233 231 230 231 233 234 233 237 243 242 240 249 249 250 256 250 243 224 217 225 235 236 219 216 195 222 257 209 197 173 171 181 193 176 176 218 232 235 228 226 223 221
236 234 234 236 232 231 231 233 235 235 233 242 242 243 238 248 251 251 252 247 234 227 227 230 228 219 226 216 241 221 239 282 183 164 175 220 157 240 305 305 285 250 233 223 225
237 234 229 233 234 234 235 233 231 230 233 241 243 242 238 241 244 246 245 240 239 236 228 235 235 221 225 234 235 225 239 261 292 99 185 180 159 225 232 338 314 250 243 239 229
234 234 228 227 232 234 233 229 229 233 234 236 233 230 233 240 242 243 241 234 237 236 229 232 232 223 222 234 238 244 252 257 259 258 235 199 162 207 248 310 329 306 232 235 246
237 236 231 227 230 233 232 232 231 231 233 229 223 227 231 231 238 244 242 236 238 224 221 223 236 224 221 230 226 267 232 214 234 224 231 191 180 247 275 307 8 85 124 212 174
237 235 234 232 234 235 236 235 233 231 231 231 235 234 232 234 237 244 240 238 238 225 216 219 232 222 218 228 235 252 242 231 223 253 226 219 202 235 268 300 357 75 123 156 166
239 238 238 235 235 235 239 239 243 238 233 233 236 235 238 238 236 245 246 243 233 222 214 209 217 221 228 223 221 226 229 210 225 206 191 233 153 216 250 288 330 19 191 179 170
245 242 241 239 237 237 239 236 238 238 237 236 242 244 238 238 238 239 241 243 236 221 213 212 215 231 212 217 226 224 213 206 198 204 201 179 235 224 231 258 280 310 323 243 234
247 249 247 244 242 241 238 234 237 238 238 237 240 244 241 234 229 236 245 244 241 224 205 209 214 228 221 235 224 228 206 221 229 257 225 204 237 239 246 239 247 271 282 261 248
244 246 248 250 248 245 241 235 232 238 240 239 238 240 243 239 236 230 233 238 236 234 223 227 228 224 233 244 242 248 246 231 228 233 246 229 252 250 248 248 237 237 255 261 253
243 244 245 247 249 248 246 242 239 237 240 242 240 240 240 241 238 236 234 233 233 233 234 232 219 219 225 245 241 251 256 251 240 247 253 250 240 248 243 245 242 241 242 250 256
243 243 243 243 243 244 245 245 241 238 240 243 245 243 241 237 238 238 234 231 232 232 231 236 234 230 233 234 243 245 248 247 240 236 236 246 253 250 249 243 244 241 234 242 248
241 241 240 240 240 241 241 242 241 240 235 237 240 243 242 242 236 235 238 236 235 229 233 234 238 241 241 243 243 243 242 245 242 244 246 248 254 257 255 250 249 248 246 237 239
245 244 242 240 241 243 242 242 242 242 240 237 236 239 242 243 244 242 241 242 242 240 239 239 238 238 239 249 245 248 250 244 247 249 251 255 256 254 257 261 259 254 252 251 244